[[{"header":{"parameterUnit":"m.s-1","parameterCategory":1,"la1":30.2991,"la2":30.254,"lo1":-89.0895,"lo2":-89.0444,"dy":0.0017,"dx":0.0017,"nx":28,"ny":28,"refTime":"2025-02-26T09:00:00:Z","depth":0,"parameterNumber":2,"parameterNumberName":"U-component_of_WINDS"},"data":[0,0,0,0,0,0,0,0,0,0,0,0,0,0,0,0,0,0,0,0,0,0,0,0,0,0,0,0,0,0,0,0,0,0,0,0,0,0,0,0,0,0,0,0,0,0,0,0,0,0,0,0,0,0,0,0,0,0,0.5029,0.5029,0,0.5038,0.5038,0.5038,0.5021,0.5021,0.502,0.502,0.5029,0.5029,0.503,0,0,0,0,0,0,0,0,0,0,0,0,0,0.4998,0.4999,0.5029,0.5029,0.5029,0.5038,0.5038,0.5038,0.5021,0.5021,0.502,0.5019,0.5028,0.5029,0.503,0,0,0,0,0,0,0,0,0,0,0,0,0,0.501,0.4999,0.5029,0.5022,0.5021,0.5038,0.5038,0.5038,0.5021,0.5021,0.502,0.5019,0.5028,0.5029,0.503,0.5054,0,0,0.5034,0.5034,0,0,0,0,0,0,0,0,0.5009,0.5011,0.5023,0.5022,0.5022,0.5028,0.503,0.5044,0.5022,0.5021,0.502,0.5019,0.5029,0.503,0.5034,0.5055,0.5055,0.5034,0.5035,0.5035,0.5035,0,0,0,0,0,0,0,0.5008,0.501,0.5033,0.5023,0.5022,0.5018,0.5019,0.5033,0.503,0.5021,0.502,0.5021,0.5029,0.5032,0.5034,0.5055,0.5034,0.5035,0.5036,0.5036,0.5098,0.5099,0,0,0,0,0,0,0.5008,0.501,0.5032,0.5033,0.5013,0.502,0.5021,0.5027,0.503,0.5029,0.5022,0.5021,0.5031,0.5032,0.5034,0.5063,0.5035,0.5036,0.5037,0.5097,0.5098,0.5099,0,0,0,0,0,0,0.5008,0.501,0.5032,0.5021,0.5023,0.5021,0.5028,0.5027,0.5031,0.503,0.503,0.5027,0.503,0.5032,0.505,0.5063,0.5037,0.5038,0.5096,0.5098,0.5099,0.5122,0,0,0,0,0,0,0.5007,0.501,0.5019,0.5021,0.5024,0.5047,0.5029,0.5028,0.5033,0.5031,0.5034,0.5034,0.503,0.5048,0.5051,0.5064,0.5039,0.5095,0.5097,0.5099,0.512,0.5124,0.5127,0,0,0,0,0,0.5006,0.5025,0.502,0.5022,0.5035,0.5048,0.505,0.5045,0.5034,0.5043,0.5043,0.5034,0.5061,0.505,0.5053,0.5067,0.5094,0.5096,0.5098,0.5118,0.5123,0.5127,0,0,0,0,0,0,0.5024,0.5025,0.5019,0.5039,0.5044,0.5045,0.5057,0.505,0.5057,0.5055,0.5048,0.5049,0.5068,0.5069,0.5057,0.5091,0.5076,0.5079,0.509,0.5094,0.5098,0.5098,0.504,0,0,0,0,0,0.503,0.5041,0.5041,0.5059,0.5061,0.5059,0.5064,0.506,0.5064,0.5066,0.5067,0.5072,0.5081,0.5088,0.5097,0.512,0.5121,0.5131,0.5135,0.5138,0.514,0.5154,0.5159,0.5107,0.5107,0.5107,0,0,0.5043,0.5045,0.5052,0.5063,0.5065,0.5077,0.506,0.5073,0.5081,0.5068,0.5085,0.5086,0.5091,0.5111,0.512,0.5113,0.5155,0.514,0.5143,0.5144,0.5157,0.5162,0.5166,0.5108,0.5108,0.5108,0,0,0.5073,0.5075,0.5091,0.5095,0.51,0.5098,0.5102,0.5105,0.5105,0.5122,0.5112,0.5122,0.5139,0.5143,0.5148,0.5181,0.5173,0.5184,0.5203,0.5217,0.5221,0.5224,0.5237,0.5242,0.5187,0.5187,0.5187,0,0.5089,0.5106,0.51,0.5114,0.5119,0.5108,0.5124,0.5128,0.5135,0.5139,0.5131,0.5153,0.5155,0.5177,0.5185,0.5189,0.5194,0.5184,0.5221,0.5224,0.5228,0.524,0.5245,0.5188,0.5188,0.5188,0.5188,0,0.5125,0.5137,0.5149,0.5158,0.5164,0.5179,0.5176,0.5184,0.5179,0.5179,0.5197,0.5199,0.5209,0.5214,0.5209,0.5236,0.5231,0.5222,0.5206,0.5234,0.5245,0.525,0.519,0.5189,0.5189,0.5189,0,0,0.5166,0.5172,0.5177,0.5181,0.5186,0.5195,0.521,0.522,0.5227,0.5233,0.5246,0.5261,0.5253,0.5258,0.5254,0.5265,0.5293,0.5255,0.5255,0.5262,0.5324,0.5331,0.5337,0.5288,0.5289,0.5289,0.5324,0,0.5197,0.5222,0.5218,0.5243,0.5255,0.5245,0.5258,0.5263,0.5263,0.5273,0.5273,0.5285,0.5272,0.5276,0.5287,0.5287,0.5305,0.5285,0.53,0.5301,0.53,0.5343,0.535,0.5383,0.5328,0.5329,0.5329,0,0.5236,0.5244,0.527,0.5275,0.528,0.5291,0.5301,0.5311,0.5316,0.5316,0.5322,0.5316,0.5332,0.5316,0.5338,0.5324,0.533,0.5332,0.5333,0.5335,0.5317,0.5346,0.5393,0.5398,0.5336,0.5336,0.5335,0,0.5264,0.5282,0.53,0.5304,0.5309,0.5318,0.5321,0.5326,0.5333,0.5341,0.5346,0.5356,0.5361,0.5369,0.5367,0.5355,0.539,0.5373,0.539,0.539,0.5398,0.5398,0.5447,0.5401,0.5401,0.5401,0.5401,0,0.5299,0.5316,0.5313,0.5324,0.5343,0.5339,0.5358,0.5359,0.5364,0.5376,0.5368,0.5379,0.5375,0.5386,0.5384,0.5403,0.5406,0.5406,0.5405,0.5407,0.5407,0.5411,0.5409,0.5402,0.5402,0.5402,0.5401,0,0.5334,0.5333,0.5352,0.5357,0.5358,0.5372,0.5376,0.5387,0.5387,0.5402,0.5405,0.5405,0.5418,0.5417,0.5431,0.543,0.5454,0.545,0.5452,0.5451,0.5469,0.5467,0.5523,0.553,0.5479,0.5479,0.548,0,0.5357,0.5369,0.5375,0.5383,0.5387,0.5399,0.5406,0.5402,0.541,0.5419,0.5429,0.5441,0.5451,0.5473,0.5474,0.5485,0.5482,0.5501,0.5484,0.5486,0.5484,0.5483,0.5485,0.5504,0.5505,0.5505,0.5506,0,0.5397,0.5396,0.5407,0.5418,0.5427,0.5435,0.5442,0.5449,0.5446,0.5455,0.5469,0.5477,0.5492,0.5505,0.5516,0.5519,0.5513,0.5511,0.5516,0.5518,0.5519,0.552,0.5462,0.551,0.551,0.5509,0.5509,0.5509,0.5427,0.5439,0.5445,0.5458,0.5463,0.5471,0.5482,0.5483,0.5494,0.5507,0.5504,0.552,0.5526,0.554,0.5545,0.5558,0.5551,0.5557,0.5559,0.5561,0.5563,0.5517,0.5559,0.5559,0.5559,0.5559,0.5559,0,0.5468,0.5472,0.5484,0.5495,0.5505,0.5498,0.5506,0.5515,0.5529,0.5536,0.5546,0.5563,0.5575,0.5578,0.5591,0.56,0.5598,0.5604,0.5603,0.5604,0.5568,0.5563,0.5606,0.5606,0.5606,0.5606,0.5606,0.5606,0.5491,0.551,0.551,0.5533,0.5537,0.5552,0.5558,0.5565,0.557,0.5589,0.56,0.5602,0.5607,0.562,0.5632,0.5633,0.5638,0.5645,0.5645,0.5611,0.5607,0.5602,0.5598,0.5646,0.5646,0.568,0.568,0.568]},{"header":{"parameterUnit":"m.s-1","parameterCategory":1,"la1":30.2991,"la2":30.254,"lo1":-89.0895,"lo2":-89.0444,"dy":0.0017,"dx":0.0017,"nx":28,"ny":28,"refTime":"2025-02-26T09:00:00:Z","depth":0,"parameterNumber":3,"parameterNumberName":"V-component_of_WINDS"},"data":[0,0,0,0,0,0,0,0,0,0,0,0,0,0,0,0,0,0,0,0,0,0,0,0,0,0,0,0,0,0,0,0,0,0,0,0,0,0,0,0,0,0,0,0,0,0,0,0,0,0,0,0,0,0,0,0,0,0,-0.5357,-0.5357,0,-0.5346,-0.5346,-0.5346,-0.533,-0.533,-0.533,-0.5329,-0.5319,-0.5319,-0.5319,0,0,0,0,0,0,0,0,0,0,0,0,0,-0.5364,-0.5364,-0.5357,-0.5357,-0.5356,-0.5346,-0.5346,-0.5346,-0.533,-0.533,-0.533,-0.5329,-0.5319,-0.5319,-0.5319,0,0,0,0,0,0,0,0,0,0,0,0,0,-0.5358,-0.5364,-0.5357,-0.5347,-0.5347,-0.5346,-0.5346,-0.5346,-0.533,-0.533,-0.533,-0.5329,-0.5319,-0.5319,-0.5319,-0.5326,0,0,-0.5318,-0.5318,0,0,0,0,0,0,0,0,-0.5358,-0.5357,-0.5349,-0.5348,-0.5347,-0.5339,-0.5344,-0.5339,-0.533,-0.5336,-0.5329,-0.5329,-0.5326,-0.5325,-0.5324,-0.5326,-0.5326,-0.5318,-0.5318,-0.5318,-0.5318,0,0,0,0,0,0,0,-0.5359,-0.5358,-0.5352,-0.5349,-0.5348,-0.5344,-0.5343,-0.5343,-0.5334,-0.5336,-0.5335,-0.5334,-0.5325,-0.5324,-0.5324,-0.5325,-0.5318,-0.5318,-0.5318,-0.5318,-0.5333,-0.5334,0,0,0,0,0,0,-0.536,-0.5358,-0.5353,-0.5352,-0.5352,-0.5344,-0.5343,-0.5342,-0.5334,-0.5332,-0.5334,-0.5333,-0.5324,-0.5324,-0.5323,-0.5332,-0.5318,-0.5318,-0.5318,-0.5333,-0.5334,-0.5334,0,0,0,0,0,0,-0.5361,-0.536,-0.5353,-0.5355,-0.5354,-0.5344,-0.5344,-0.5342,-0.5341,-0.5332,-0.533,-0.5335,-0.5324,-0.5323,-0.5326,-0.5332,-0.5318,-0.5318,-0.5333,-0.5333,-0.5334,-0.535,0,0,0,0,0,0,-0.5361,-0.536,-0.5363,-0.5355,-0.5354,-0.5356,-0.5344,-0.5342,-0.5341,-0.5339,-0.5332,-0.5331,-0.5324,-0.5326,-0.5326,-0.5331,-0.5318,-0.5332,-0.5333,-0.5334,-0.5349,-0.5351,-0.5353,0,0,0,0,0,-0.5361,-0.5368,-0.5363,-0.5363,-0.5357,-0.5356,-0.5356,-0.5347,-0.5341,-0.5344,-0.5339,-0.5331,-0.5331,-0.5326,-0.5326,-0.5332,-0.5332,-0.5333,-0.5334,-0.5348,-0.5351,-0.5353,0,0,0,0,0,0,-0.5377,-0.5367,-0.5361,-0.5366,-0.5362,-0.5354,-0.5357,-0.535,-0.5348,-0.5347,-0.5337,-0.5335,-0.5339,-0.5336,-0.5331,-0.5339,-0.533,-0.5331,-0.5341,-0.5344,-0.5346,-0.5347,-0.5318,0,0,0,0,0,-0.5381,-0.5381,-0.5372,-0.5377,-0.5375,-0.5367,-0.5366,-0.536,-0.5356,-0.5354,-0.5348,-0.5345,-0.5344,-0.5343,-0.5342,-0.5348,-0.5346,-0.5352,-0.5354,-0.5355,-0.5356,-0.536,-0.5362,-0.5337,-0.5337,-0.5337,0,0,-0.5389,-0.5383,-0.5384,-0.538,-0.5376,-0.5377,-0.5365,-0.5366,-0.5367,-0.5354,-0.5356,-0.5352,-0.5347,-0.5352,-0.5353,-0.5349,-0.5363,-0.5357,-0.5358,-0.5358,-0.5361,-0.5363,-0.5365,-0.5338,-0.5338,-0.5338,0,0,-0.5404,-0.54,-0.5404,-0.54,-0.5395,-0.5389,-0.539,-0.5383,-0.5379,-0.5381,-0.5372,-0.5372,-0.5371,-0.5368,-0.5366,-0.538,-0.5373,-0.538,-0.5391,-0.5394,-0.5396,-0.5398,-0.5403,-0.5405,-0.5381,-0.5381,-0.5381,0,-0.5415,-0.5416,-0.5406,-0.5408,-0.5407,-0.5395,-0.5399,-0.5396,-0.539,-0.539,-0.5385,-0.5383,-0.5379,-0.5382,-0.5386,-0.5385,-0.5386,-0.5381,-0.5397,-0.5398,-0.54,-0.5405,-0.5407,-0.5382,-0.5382,-0.5382,-0.5382,0,-0.5429,-0.543,-0.5433,-0.5428,-0.5427,-0.543,-0.5421,-0.5421,-0.5415,-0.541,-0.5412,-0.5407,-0.5404,-0.5405,-0.5399,-0.5408,-0.5405,-0.5398,-0.5389,-0.5403,-0.5408,-0.5409,-0.5383,-0.5383,-0.5383,-0.5383,0,0,-0.5454,-0.5444,-0.5446,-0.5444,-0.5437,-0.5437,-0.5439,-0.5437,-0.5437,-0.5434,-0.5435,-0.5435,-0.5428,-0.5427,-0.542,-0.5423,-0.5435,-0.5416,-0.5416,-0.542,-0.5445,-0.545,-0.5453,-0.543,-0.5431,-0.5431,-0.5445,0,-0.5469,-0.5472,-0.5464,-0.5469,-0.5469,-0.5459,-0.546,-0.5457,-0.5452,-0.5452,-0.5446,-0.5446,-0.5438,-0.5436,-0.5439,-0.5433,-0.544,-0.5432,-0.5432,-0.5432,-0.5434,-0.5455,-0.546,-0.5474,-0.5447,-0.5447,-0.5448,0,-0.5486,-0.5483,-0.5489,-0.5482,-0.5482,-0.5484,-0.5481,-0.548,-0.5476,-0.5472,-0.547,-0.5463,-0.5465,-0.5456,-0.5459,-0.5453,-0.5453,-0.545,-0.545,-0.545,-0.5441,-0.5456,-0.5479,-0.5481,-0.545,-0.545,-0.545,0,-0.5504,-0.5502,-0.5505,-0.5503,-0.5495,-0.5497,-0.5494,-0.5489,-0.5488,-0.5485,-0.5485,-0.5482,-0.5481,-0.548,-0.5472,-0.5466,-0.5476,-0.5466,-0.5473,-0.5473,-0.5476,-0.5476,-0.5499,-0.5475,-0.5475,-0.5475,-0.5475,0,-0.5521,-0.5525,-0.5513,-0.5515,-0.5519,-0.5509,-0.5514,-0.5509,-0.5505,-0.5506,-0.5496,-0.5498,-0.5487,-0.5487,-0.5481,-0.5485,-0.5484,-0.5481,-0.548,-0.5482,-0.5483,-0.5482,-0.5481,-0.5475,-0.5475,-0.5475,-0.5475,0,-0.5542,-0.5534,-0.5537,-0.5529,-0.5527,-0.5531,-0.5524,-0.5525,-0.552,-0.5521,-0.5521,-0.5513,-0.5512,-0.5504,-0.5502,-0.5498,-0.5504,-0.55,-0.5506,-0.5505,-0.5512,-0.5512,-0.5536,-0.5539,-0.5513,-0.5513,-0.5513,0,-0.5553,-0.5556,-0.5549,-0.5549,-0.5546,-0.5546,-0.5545,-0.5536,-0.5535,-0.553,-0.5533,-0.5531,-0.553,-0.553,-0.5524,-0.5522,-0.5519,-0.5527,-0.5518,-0.5521,-0.5519,-0.5519,-0.552,-0.5529,-0.553,-0.553,-0.553,0,-0.5575,-0.5571,-0.557,-0.5568,-0.5567,-0.5565,-0.5562,-0.5562,-0.5552,-0.5552,-0.5552,-0.5551,-0.5548,-0.5548,-0.5545,-0.5542,-0.5535,-0.5533,-0.5535,-0.5538,-0.5541,-0.554,-0.5511,-0.5533,-0.5532,-0.5532,-0.5532,-0.5532,-0.5592,-0.5594,-0.5589,-0.5588,-0.5585,-0.5583,-0.5584,-0.5579,-0.5578,-0.5576,-0.557,-0.5571,-0.5566,-0.5562,-0.5559,-0.5559,-0.5555,-0.5557,-0.5558,-0.5559,-0.556,-0.554,-0.5559,-0.5559,-0.5559,-0.5559,-0.5559,0,-0.5613,-0.5609,-0.5609,-0.5605,-0.5605,-0.5598,-0.5594,-0.5594,-0.5595,-0.5591,-0.559,-0.559,-0.5589,-0.5582,-0.5581,-0.5582,-0.5579,-0.5582,-0.5582,-0.5582,-0.5564,-0.5563,-0.5585,-0.5585,-0.5585,-0.5585,-0.5585,-0.5585,-0.5624,-0.5627,-0.5623,-0.5625,-0.5621,-0.5621,-0.562,-0.5618,-0.5615,-0.5615,-0.5614,-0.561,-0.5605,-0.5603,-0.5602,-0.56,-0.56,-0.5605,-0.5602,-0.5586,-0.5583,-0.5581,-0.558,-0.5605,-0.5605,-0.562,-0.562,-0.562]}]]